Location: Wildcat Hills Observatory
(41.6350°N, 103.6812°W)
Time: 05:25:56
(UTC-07:00)

Daily predictions for brighter satellites

Satellite Brightness Start Highest point End
(mag) Time Altitude Azimuth Time Altitude Azimuth Time Altitude Azimuth
CENTAUR R/B 4.3 03:27:39 26° NE 03:27:39 26° NE 03:30:27 10° NE
Lacrosse 5 4.5 03:34:49 16° ESE 03:34:49 16° ESE 03:37:36 10° E
SL-16 R/B 3.7 04:22:03 25° NNE 04:22:03 25° NNE 04:24:22 10° NNE
Cosmos 2074 Rocket 4.1 04:23:03 10° S 04:29:18 73° E 04:35:32 10° NNE
Cosmos 2056 Rocket 4.1 04:33:57 40° NNE 04:35:22 52° ENE 04:40:20 10° SE
Meteor 1-25 Rocket 4.1 04:31:03 10° S 04:36:53 86° W 04:42:44 10° N
ADEOS II 4.4 04:32:39 10° N 04:32:50 11° N 04:32:50 11° N
Abrixas rocket 4.4 04:43:16 27° E 04:43:16 27° E 04:45:11 10° ENE
Cosmos 1346 Rocket 3.8 04:47:10 40° SSE 04:47:10 40° SSE 04:49:47 10° SSE
Cosmos 2184 Rocket 3.8 04:40:16 10° S 04:46:26 87° W 04:52:40 10° N
Cosmos 1624 Rocket 4.1 04:47:20 45° N 04:48:58 76° ENE 04:54:16 10° SSE
Cosmos 1371 Rocket 3.8 04:53:08 62° NW 04:54:00 80° WSW 04:59:14 10° SSE
Cosmos 1238 Rocket 3.6 04:54:49 56° WSW 04:54:49 56° WSW 05:00:05 10° S
SJ-6F 4.4 04:52:14 10° NNE 04:56:20 77° ESE 05:00:23 10° S
USA 32 3.9 04:55:40 60° NW 04:56:24 69° W 05:01:36 10° S
USA 215 3.3 04:51:52 10° NE 04:58:26 79° SE 05:03:49 16° SW
Cosmos 1536 Rocket 4.2 05:01:53 41° SSW 05:01:53 41° SSW 05:04:54 10° S
PSLV R/B 4.4 05:02:42 39° SSE 05:02:42 39° SSE 05:05:12 10° ESE
Cosmos 2154 Rocket 4.3 04:56:08 10° S 05:02:16 65° E 05:08:24 10° NNE
Cosmos 921 Rocket 4.1 05:11:05 31° SW 05:11:05 31° SW 05:13:52 10° S
Cosmos 44 Rocket 3.3 05:09:09 10° SSW 05:14:20 90° ESE 05:19:29 10° NNE
CENTAUR R/B 3.6 05:14:51 26° NW 05:15:08 26° NW 05:20:55 10° NNE
Cosmos 2369 Rocket 2.6 05:10:40 16° NNW 05:15:19 63° ENE 05:20:57 10° SE
Cosmos 1603 3.7 05:11:08 11° SW 05:16:36 60° WNW 05:22:13 10° NNE
Lacrosse 5 1.8 05:14:07 27° SW 05:16:59 86° NW 05:22:07 10° NE
CZ-4 R/B 4.0 05:15:29 10° NE 05:18:31 21° E 05:21:30 10° SE
Cosmos 1536 3.4 05:16:27 10° S 05:20:22 59° E 05:24:20 10° NNE
Cosmos 192 4.2 05:16:08 10° SSW 05:21:01 74° WNW 05:25:56 10° NNE
Okean 1 Rocket 2.9 05:16:55 10° S 05:21:20 82° W 05:25:43 10° N
Cosmos 1610 Rocket 4.4 05:17:12 10° SSW 05:23:18 64° W 05:29:32 10° N
Cosmos 1452 Rocket 4.0 05:19:31 10° NNW 05:24:41 61° ENE 05:29:53 10° SSE
COSMO-SKYMED 1 2.5 05:23:36 10° S 05:27:53 61° W 05:30:32 22° NNW
Lacrosse 4 Rocket 3.5 05:34:30 10° N 05:37:46 22° NE 05:40:57 10° ESE
Okean 1-7 Rocket 3.5 05:36:19 11° NNW 05:40:33 62° W 05:44:53 10° S
Cosmos 1943 3.1 05:34:57 10° SSW 05:40:34 83° WNW 05:46:16 10° NNE
NOAA 6 4.4 05:37:28 10° N 05:42:14 40° WNW 05:46:59 10° SW
Lacrosse 5 rocket 3.8 05:43:21 10° N 05:43:44 10° N 05:44:07 10° N
Tiangong 2 1.0 05:44:45 37° WNW 05:45:49 82° N 05:48:59 10° E
Cosmos 1300 Rocket 4.2 05:43:32 10° SW 05:47:32 33° WNW 05:51:32 10° N
Cosmos 1892 Rocket 4.3 05:43:57 10° N 05:48:22 56° E 05:52:45 10° SSE
GRACE-1 4.4 05:47:13 10° N 05:49:58 59° E 05:52:43 10° S
Cosmos 1633 3.1 05:47:08 10° SW 05:50:29 34° WNW 05:53:50 10° N
Nadezhda 3 Rocket 4.2 05:49:51 10° NNW 05:55:56 50° W 06:02:02 10° SSW
Cosmos 1943 Rocket 2.6 05:51:46 10° NNW 05:57:15 64° ENE 06:02:42 10° SE
Cosmos 1295 Rocket 4.5 05:51:14 10° S 05:57:32 81° W 06:03:49 10° N
PAYLOAD A 4.3 05:55:35 10° NNE 06:01:00 81° ESE 06:06:26 10° S
Cosmos 1269 Rocket 4.4 05:58:02 10° S 06:03:17 69° ESE 06:08:34 10° NNE
Helios 1B rocket 3.2 05:59:28 10° SSE 06:03:31 55° ENE 06:07:35 10° N
SL-16 R/B 4.0 06:03:59 12° NW 06:03:59 12° NW 06:06:04 10° NNW
USA 129 2.2 06:05:59 10° S 06:07:57 36° W 06:09:04 20° NW
Cosmos 44 3.6 06:07:51 10° SW 06:13:03 51° NW 06:18:07 10° NNE
USA 229 DEB 3.7 06:06:50 10° SW 06:13:44 84° NW 06:20:44 10° NE
Cosmos 1455 Rocket 3.3 06:09:29 10° S 06:13:46 73° E 06:18:07 10° NNE
USA 229 3.7 06:06:57 10° SW 06:13:50 84° NW 06:20:50 10° NE
Cosmos 468 4.5 06:09:01 10° SSW 06:14:15 71° WNW 06:19:34 10° NNE
SMAP 3.4 06:10:10 10° NNE 06:14:49 71° ESE 06:19:28 10° S
Cosmos 1727 Rocket 4.3 06:11:01 10° N 06:17:11 72° E 06:23:22 10° SSE
Cosmos 1420 Rocket 4.0 06:13:37 10° NNW 06:18:52 76° WSW 06:24:03 10° SSE
Abrixas rocket 2.8 06:16:06 12° W 06:18:56 40° NNW 06:22:08 10° NE
SL-23 DEB 3.6 06:16:38 13° NW 06:19:25 67° NNE 06:23:20 10° ESE
Meteor 1-28 Rocket 4.3 06:16:58 10° SSW 06:20:08 25° W 06:23:21 10° NW
Cosmos 2084 3.3 06:16:41 10° SSW 06:20:34 78° SE 06:24:22 10° NE
Cosmos 2341 Rocket 4.4 06:14:45 10° SW 06:20:38 41° WNW 06:26:31 10° N
Cosmos 2263 4.4 06:17:33 10° NW 06:22:59 51° WSW 06:28:22 10° S
MOS 1 4.5 06:18:51 10° NNE 06:24:32 80° ESE 06:30:11 10° SSW
SPOT 3 Rocket 3.6 06:21:38 10° NNE 06:26:49 85° ESE 06:31:58 10° SSW
Ariane Rocket 3.8 06:24:52 10° N 06:29:06 28° WNW 06:33:20 10° WSW
Meteor 1-29 2.9 06:27:25 10° SSE 06:30:46 89° E 06:34:10 10° NNW
Cosmos 1048 Rocket 3.9 06:28:06 10° SSW 06:33:12 72° WNW 06:38:24 10° NNE
Cosmos 1340 3.1 06:29:48 10° NNW 06:33:22 40° W 06:36:55 10° SSW
Okean 2 4.2 06:35:25 10° NNW 06:39:11 33° W 06:42:55 10° SSW
USA 215 3.8 06:35:10 10° NE 06:41:05 38° NNW 06:46:59 10° W
CSL-04 Rocket 4.5 06:36:33 10° N 06:41:19 30° WNW 06:46:01 10° SW
Cosmos 864 Rocket 4.5 06:35:53 10° SSW 06:41:57 67° W 06:48:08 10° N
